sat.trackr.live / text

‹ back to catalog

STARLINK-1371

NORAD 45542 · 2020-025M

PAYLOAD ACTIVE UNKNOWN

§ Identity

Operator
Country
US
Launch date
2020-04-22
Launch site
AFETR
Launch vehicle
Mass (kg)
RCS (m²)

Purposes: comms

External: N2YO · Heavens-Above · Gunter

§ Orbital elements

Epoch: 2026-09-08T11:21:04.233024Z

Period
91.18 min
Inclination
53.0374°
Eccentricity
0.0005474
Mean motion
15.79326911 rev/d
Perigee alt
328.7 km
Apogee alt
336.0 km
Semi-major
6,710.5 km
B*
4.9017e-4
RAAN
273.9357°
Arg perigee
23.4989°
Mean anomaly
336.6280°
Rev number
35,393

§ Raw data

STARLINK-13711 45542U 20025M   26251.47296566  .00090491  00000+0  49017-3 0  99962 45542  53.0374 273.9357 0005474  23.4989 336.6280 15.79326911353930

JSON: /api/v1/satellites/45542 · /tle

For live sub-satellite position, see the globe view (requires WebGL).

§ Visibility from observer

Set your observer location to see the next 7 days of passes ≥ 10°. The values pass through the URL so the page stays shareable.

No JS? Fill the form by hand. The geolocation button needs JavaScript.